Glennallen, AK

5:43 PM AKST on February 23, 2017 (GMT -0900)
Gulkana

Weather History for PAGK - September, 2012

Change the Weather History Date:

Monday, September 17, 2012

  Actual Average Record
Temperature  
Mean Temperature 47 °F -  
Max Temperature 53 °F 53 °F 68 °F (2010)
Min Temperature 39 °F 33 °F 10 °F (2003)
Degree Days  
Heating Degree Days 18    
Moisture  
Dew Point 32 °F    
Average Humidity 58    
Maximum Humidity 73    
Minimum Humidity 27    
Precipitation  
Precipitation 0.00 in - - ()
Sea Level Pressure  
Sea Level Pressure 29.86 in    
Wind  
Wind Speed 22 mph (SSE)    
Max Wind Speed 30 mph    
Max Gust Speed 39 mph    
Visibility 10 miles    
Events      
Averages and records for this station are not official NWS values.
T = Trace of Precipitation, MM = Missing Value Source: NWS Daily Summary

Daily Weather History Graph

Daily Weather History Graph

Search for Another Location

Airport or City:

Trip Planner

Search our weather history database for the weather conditions in past years. The results will help you decide how hot, cold, wet, or windy it might be!

Date:

Astronomy

Sep. 17, 2012 Rise Set
Actual Time 7:14 AM AKDT 7:56 PM AKDT
Civil Twilight 6:29 AM AKDT 8:41 PM AKDT
Nautical Twilight 5:33 AM AKDT 9:36 PM AKDT
Astronomical Twilight 4:29 AM AKDT 10:39 PM AKDT
Moon 10:11 AM AKDT (9/17) 7:40 PM AKDT (9/17)
Length of Visible Light 14h 11m
Length of Day
12h 41m
Waxing Crescent, 4% of the Moon is Illuminated
Sep 17
Waxing Crescent
Sep 22
First Quarter
Sep 29
Full
Oct 7
Last Quarter
Oct 15
New

Hourly Weather History & Observations

Time (AKDT) Temp. Windchill Dew Point Humidity Pressure Visibility Wind Dir Wind Speed Gust Speed Precip Events Conditions
12:53 AM 45.0 °F 36.6 °F 33.1 °F 63% 29.69 in 10.0 mi SSE 21.9 mph 28.8 mph N/A   Scattered Clouds
1:53 AM 45.0 °F 36.9 °F 33.1 °F 63% 29.70 in 10.0 mi SSE 20.7 mph 31.1 mph N/A   Partly Cloudy
2:53 AM 44.1 °F 35.9 °F 35.1 °F 71% 29.71 in 10.0 mi SSE 19.6 mph 31.1 mph N/A   Clear
3:53 AM 44.1 °F 34.4 °F 34.0 °F 68% 29.71 in 10.0 mi SSE 27.6 mph 36.8 mph N/A   Clear
4:53 AM 44.1 °F 35.4 °F 34.0 °F 68% 29.75 in 10.0 mi South 21.9 mph 29.9 mph N/A   Clear
5:53 AM 43.0 °F 33.1 °F 33.1 °F 68% 29.78 in 10.0 mi South 26.5 mph 32.2 mph N/A   Clear
5:59 AM 42.8 °F 33.5 °F 33.8 °F 70% 29.74 in 10.0 mi SSE 23.0 mph 32.2 mph N/A   Scattered Clouds
6:53 AM 43.0 °F 34.8 °F 34.0 °F 71% 29.81 in 10.0 mi South 18.4 mph 27.6 mph N/A   Scattered Clouds
7:53 AM 42.1 °F 33.6 °F 34.0 °F 73% 29.82 in 10.0 mi SSE 18.4 mph 25.3 mph N/A   Scattered Clouds
8:53 AM 44.1 °F 35.2 °F 35.1 °F 71% 29.83 in 10.0 mi South 23.0 mph 34.5 mph N/A   Mostly Cloudy
9:53 AM 45.0 °F 36.9 °F 35.1 °F 68% 29.85 in 10.0 mi SSE 20.7 mph 29.9 mph N/A   Mostly Cloudy
10:53 AM 45.0 °F 36.4 °F 35.1 °F 68% 29.86 in 10.0 mi South 23.0 mph 32.2 mph N/A   Mostly Cloudy
11:53 AM 46.9 °F - 35.1 °F 63% 29.86 in 10.0 mi SSE 24.2 mph 33.4 mph N/A   Mostly Cloudy
12:53 PM 48.9 °F - 33.1 °F 54% 29.87 in 10.0 mi SSE 21.9 mph 32.2 mph N/A   Mostly Cloudy
1:53 PM 50.0 °F - 33.1 °F 52% 29.88 in 10.0 mi SSE 21.9 mph 36.8 mph N/A   Mostly Cloudy
2:53 PM 52.0 °F - 32.0 °F 47% 29.89 in 10.0 mi South 20.7 mph 29.9 mph N/A   Mostly Cloudy
3:53 PM 52.0 °F - 28.0 °F 40% 29.90 in 10.0 mi SSE 29.9 mph 39.1 mph N/A   Scattered Clouds
4:53 PM 52.0 °F - 28.0 °F 40% 29.91 in 10.0 mi South 17.3 mph 31.1 mph N/A   Scattered Clouds
5:53 PM 50.0 °F - 28.0 °F 43% 29.93 in 10.0 mi SSE 26.5 mph 36.8 mph N/A   Scattered Clouds
6:53 PM 48.0 °F - 27.0 °F 44% 29.95 in 10.0 mi SSE 24.2 mph 29.9 mph N/A   Scattered Clouds
7:53 PM 46.0 °F 37.6 °F 26.1 °F 46% 29.96 in 10.0 mi SSE 24.2 mph 33.4 mph N/A   Scattered Clouds
8:53 PM 44.1 °F 35.7 °F 27.0 °F 51% 29.99 in 10.0 mi SSE 20.7 mph 27.6 mph N/A   Scattered Clouds
9:25 PM 44.6 °F 36.9 °F 28.4 °F 53% 29.95 in 10.0 mi SSE 18.4 mph 26.5 mph N/A   Scattered Clouds
9:53 PM 43.0 °F 35.1 °F 28.0 °F 56% 30.00 in 10.0 mi SSE 17.3 mph - N/A   Clear
10:53 PM 42.1 °F 33.9 °F 28.9 °F 60% 30.00 in 10.0 mi SSE 17.3 mph - N/A   Clear
11:53 PM 39.9 °F 32.1 °F 30.0 °F 68% 30.01 in 10.0 mi South 13.8 mph 23.0 mph N/A   Clear